Hourly Data Report for September 21, 2017

All times are specified in Local Standard Time (LST). Add 1 hour to adjust for Daylight Saving Time where and when it is observed.

WOODSTOCK NEWBRIDGE
NEW BRUNSWICK

46°09'08.000" N
67°32'34.000" W
154.00 m
8105603
71606
EWD

Download Data

Hourly Data (September 2017)
Hourly Data Report for September 21, 2017
Temp Definition
°C
Dew Point Temp Definition
°C
Rel Hum Definition
%
Wind Dir Definition
10's deg

Wind Spd Definition
km/h
Visibility Definition
km
Stn Press Definition
kPa
Hmdx Definition


Wind Chill Definition


Weather Definition


TIME
00:00 14.0 10.1 77 35 1   100.10     LegendNANA
01:00 10.4 9.1 92   0   100.17     LegendNANA
02:00 10.4 9.6 95 35 2   100.18     LegendNANA
03:00 8.7 7.9 94   0   100.19     LegendNANA
04:00 7.7 6.7 94   0   100.22     LegendNANA
05:00 8.0 7.3 95   0   100.25     LegendNANA
06:00 7.5 7.0 97 35 1   100.27     LegendNANA
07:00 9.5 8.3 92 34 4   100.33     LegendNANA
08:00 11.4 7.9 79 34 3   100.37     LegendNANA
09:00 15.0 8.7 66 35 4   100.41     LegendNANA
10:00 17.9 6.3 47 3 10   100.42     LegendNANA
11:00 18.9 7.1 46 6 9   100.44     LegendNANA
12:00 20.5 5.8 38 6 7   100.41     LegendNANA
13:00 21.5 4.0 32 3 10   100.39     LegendNANA
14:00 22.2 4.3 31 2 9   100.33     LegendNANA
15:00 22.5 4.6 31 3 8   100.30     LegendNANA
16:00 22.2 4.1 31 7 11   100.30     LegendNANA
17:00 21.2 4.7 34 9 8   100.31     LegendNANA
18:00 19.6 5.4 39 9 6   100.33     LegendNANA
19:00 16.2 5.8 50 9 5   100.41     LegendNANA
20:00 15.7 5.7 52 8 6   100.44     LegendNANA
21:00 14.5 5.8 56 9 11   100.46     LegendNANA
22:00 13.1 5.6 61 9 3   100.51     LegendNANA
23:00 12.1 5.4 63 9 5   100.54     LegendNANA

Notes on Data Quality.

Legend

  • E = Estimated
  • M = Missing
  • NA = Not Available
  • ‡ = Partner data that is not subject to review by the National Climate Archives
Date modified: